Satellite-Ground Cal/Val Region Overpasses Predictions

Prediction of Satellite NPP Overpassing Cal/Val Region: PacNW

Region Location: (Latitude: 10.00, Longitude: 139.50) to (Latitude: 22.70, Longitude: 165.60).

Table of predicted overpasses for the next 14.0 days since TLE Epoch: 12/21/2015
Interval Starting Time Starting Location Ending Time Ending Location
1 12/22/2015 03:13:21 ( 10.02, 151.90) 12/22/2015 03:16:56 ( 22.64, 148.91)
2 12/22/2015 15:45:13 ( 22.70, 149.13) 12/22/2015 15:48:49 ( 10.02, 146.12)
3 12/23/2015 02:54:18 ( 10.02, 156.66) 12/23/2015 02:57:53 ( 22.65, 153.66)
4 12/23/2015 15:26:11 ( 22.69, 153.88) 12/23/2015 15:29:47 ( 10.01, 150.87)
5 12/24/2015 02:35:16 ( 10.03, 161.42) 12/24/2015 02:38:51 ( 22.65, 158.42)
6 12/24/2015 15:07:08 ( 22.69, 158.64) 12/24/2015 15:10:44 ( 10.01, 155.63)
7 12/25/2015 02:16:56 ( 12.56, 165.59) 12/25/2015 02:19:48 ( 22.66, 163.18)
8 12/25/2015 03:57:43 ( 10.04, 140.80) 12/25/2015 03:59:18 ( 15.62, 139.51)
9 12/25/2015 14:48:06 ( 22.68, 163.40) 12/25/2015 14:51:42 ( 10.00, 160.39)
10 12/26/2015 03:38:41 ( 10.05, 145.55) 12/26/2015 03:42:16 ( 22.67, 142.56)
11 12/26/2015 14:32:05 ( 12.00, 165.60) 12/26/2015 14:32:38 ( 10.06, 165.16)
12 12/26/2015 16:10:33 ( 22.67, 142.78) 12/26/2015 16:14:08 ( 10.05, 139.78)
13 12/27/2015 03:19:38 ( 10.05, 150.31) 12/27/2015 03:23:13 ( 22.68, 147.31)
14 12/27/2015 15:51:31 ( 22.66, 147.53) 12/27/2015 15:55:06 ( 10.04, 144.54)
15 12/28/2015 03:00:35 ( 10.00, 155.08) 12/28/2015 03:04:11 ( 22.68, 152.07)
16 12/28/2015 15:32:29 ( 22.65, 152.29) 12/28/2015 15:36:04 ( 10.03, 149.29)
17 12/29/2015 02:41:32 ( 10.01, 159.84) 12/29/2015 02:45:08 ( 22.69, 156.83)
18 12/29/2015 15:13:26 ( 22.65, 157.04) 12/29/2015 15:17:01 ( 10.02, 154.05)
19 12/30/2015 02:22:30 ( 10.02, 164.59) 12/30/2015 02:26:05 ( 22.64, 161.60)
20 12/30/2015 14:54:23 ( 22.69, 161.81) 12/30/2015 14:57:59 ( 10.01, 158.80)
21 12/31/2015 03:44:57 ( 10.04, 143.97) 12/31/2015 03:48:32 ( 22.66, 140.97)
22 12/31/2015 14:36:28 ( 18.70, 165.59) 12/31/2015 14:38:56 ( 10.00, 163.56)
23
